Weather History for Naples, FL

Change the Weather History Date:

Saturday, December 22, 2012

  Actual Average Record
Temperature  
Mean Temperature 56 °F 66 °F  
Max Temperature 66 °F 76 °F 87 °F (1990)
Min Temperature 45 °F 56 °F 34 °F (1973)
Degree Days  
Heating Degree Days 9 2  
Month to date heating degree days 11 39  
Since 1 July heating degree days 24 53  
Cooling Degree Days 0 3  
Month to date cooling degree days 141 95  
Year to date cooling degree days 4107 3914  
Growing Degree Days 5 (Base 50)    
Moisture  
Dew Point 36 °F    
Average Humidity 50    
Maximum Humidity 76    
Minimum Humidity 24    
Precipitation  
Precipitation 0.00 in 0.05 in 0.96 in (1972)
Month to date precipitation 1.71 1.06  
Year to date precipitation 37.86 51.50  
Snow  
Snow 0.00 in - - ()
Month to date snowfall 0.0  
Since 1 July snowfall 0.0  
Snow Depth 0.00 in    
Sea Level Pressure  
Sea Level Pressure 30.24 in    
Wind  
Wind Speed 5 mph (North)    
Max Wind Speed 13 mph    
Max Gust Speed 17 mph    
Visibility 10 miles    
Events      
T = Trace of Precipitation, MM = Missing Value Source: NWS Daily Summary

Daily Weather History Graph

Daily Weather History Graph

Search for Another Location

Airport:

Trip Planner

Search our weather history database for the weather conditions in past years. The results will help you decide how hot, cold, wet, or windy it might be!

Date:

Astronomy

Dec. 22, 2012 Rise Set
Actual Time 7:10 AM EST 5:41 PM EST
Civil Twilight 6:45 AM EST 6:06 PM EST
Nautical Twilight 6:16 AM EST 6:35 PM EST
Astronomical Twilight 5:48 AM EST 7:03 PM EST
Moon 1:42 PM EST (12/22) 2:12 AM EST (12/22)
Length of Visible Light 11h 20m
Length of Day
10h 30m
Waxing Gibbous, 73% of the Moon is Illuminated
Dec 22
Waxing Gibbous
Dec 28
Full
Jan 4
Last Quarter
Jan 11
New
Jan 18
First Quarter

Hourly Weather History & Observations

Time (EST) Temp. Windchill Dew Point Humidity Pressure Visibility Wind Dir Wind Speed Gust Speed Precip Events Conditions
12:53 AM 52.0 °F - 41.0 °F 66% 30.21 in 10.0 mi North 6.9 mph - N/A   Clear
1:53 AM 51.1 °F - 41.0 °F 68% 30.20 in 10.0 mi North 5.8 mph - N/A   Clear
2:53 AM 51.1 °F - 41.0 °F 68% 30.21 in 10.0 mi North 5.8 mph - N/A   Clear
3:53 AM 50.0 °F - 41.0 °F 71% 30.19 in 10.0 mi North 5.8 mph - N/A   Clear
4:53 AM 50.0 °F - 39.9 °F 68% 30.20 in 10.0 mi North 4.6 mph - N/A   Clear
5:53 AM 50.0 °F - 37.9 °F 63% 30.22 in 10.0 mi North 4.6 mph - N/A   Clear
6:53 AM 48.0 °F - 36.0 °F 63% 30.25 in 10.0 mi North 5.8 mph - N/A   Clear
7:53 AM 48.0 °F - 37.9 °F 68% 30.27 in 10.0 mi NNE 4.6 mph - N/A   Clear
8:53 AM 50.0 °F - 37.0 °F 61% 30.29 in 10.0 mi North 9.2 mph - N/A   Clear
9:53 AM 53.1 °F - 36.0 °F 52% 30.30 in 10.0 mi North 9.2 mph - N/A   Clear
10:53 AM 57.0 °F - 32.0 °F 39% 30.29 in 10.0 mi North 8.1 mph - N/A   Clear
11:53 AM 59.0 °F - 30.0 °F 33% 30.27 in 10.0 mi North 9.2 mph - N/A   Clear
12:53 PM 61.0 °F - 30.0 °F 31% 30.25 in 10.0 mi Variable 5.8 mph - N/A   Clear
1:53 PM 64.0 °F - 32.0 °F 30% 30.22 in 10.0 mi NNW 9.2 mph - N/A   Clear
2:53 PM 64.0 °F - 33.1 °F 31% 30.21 in 10.0 mi NW 6.9 mph - N/A   Clear
3:53 PM 64.9 °F - 32.0 °F 29% 30.21 in 10.0 mi Variable 4.6 mph - N/A   Clear
4:53 PM 64.9 °F - 27.0 °F 24% 30.21 in 10.0 mi NNW 4.6 mph - N/A   Clear
5:53 PM 60.1 °F - 30.0 °F 32% 30.21 in 10.0 mi Calm Calm - N/A   Clear
6:53 PM 57.0 °F - 34.0 °F 42% 30.22 in 10.0 mi North 4.6 mph - N/A   Clear
7:53 PM 54.0 °F - 34.0 °F 47% 30.24 in 10.0 mi North 3.5 mph - N/A   Clear
8:53 PM 53.1 °F - 36.0 °F 52% 30.24 in 10.0 mi Calm Calm - N/A   Clear
9:53 PM 48.0 °F - 39.9 °F 74% 30.25 in 10.0 mi Calm Calm - N/A   Clear
10:53 PM 46.9 °F - 39.9 °F 77% 30.25 in 10.0 mi Calm Calm - N/A   Clear
11:53 PM 46.0 °F 44.8 °F 39.9 °F 79% 30.25 in 10.0 mi NNE 3.5 mph - N/A   Clear